[[{"header":{"parameterUnit":"m.s-1","parameterCategory":1,"la1":30.2991,"la2":30.254,"lo1":-89.0895,"lo2":-89.0444,"dy":0.0017,"dx":0.0017,"nx":28,"ny":28,"refTime":"2025-06-06T21:00:00:Z","depth":0,"parameterNumber":2,"parameterNumberName":"U-component_of_WINDS"},"data":[0,0,0,0,0,0,0,0,0,0,0,0,0,0,0,0,0,0,0,0,0,0,0,0,0,0,0,0,0,0,0,0,0,0,0,0,0,0,0,0,0,0,0,0,0,0,0,0,0,0,0,0,0,0,0,0,0,0,2.5029,2.503,0,2.5161,2.5162,2.5164,2.5265,2.5266,2.5267,2.5268,2.5402,2.5405,2.5407,0,0,0,0,0,0,0,0,0,0,0,0,0,2.4869,2.4871,2.5029,2.503,2.5032,2.516,2.5162,2.5164,2.5265,2.5266,2.5267,2.5269,2.5401,2.5404,2.5408,0,0,0,0,0,0,0,0,0,0,0,0,0,2.4963,2.4872,2.5028,2.5098,2.5105,2.516,2.5162,2.5164,2.5265,2.5266,2.5268,2.5269,2.54,2.5404,2.5408,2.5404,0,0,2.542,2.5422,0,0,0,0,0,0,0,0,2.4958,2.4969,2.5086,2.5093,2.5102,2.5198,2.5155,2.5245,2.5264,2.5204,2.5268,2.527,2.5333,2.5343,2.5364,2.541,2.5416,2.5421,2.5423,2.5425,2.5426,0,0,0,0,0,0,0,2.4951,2.4964,2.5081,2.5088,2.5097,2.5124,2.5139,2.5173,2.5259,2.521,2.5217,2.5232,2.5338,2.536,2.5368,2.5418,2.5421,2.5424,2.5427,2.5428,2.5475,2.5474,0,0,0,0,0,0,2.4933,2.4958,2.5077,2.5085,2.5032,2.5126,2.5143,2.5166,2.5259,2.5274,2.523,2.5236,2.5352,2.5363,2.5373,2.5379,2.5425,2.5429,2.5431,2.5476,2.5475,2.5474,0,0,0,0,0,0,2.4929,2.4943,2.5071,2.5023,2.5042,2.5127,2.5152,2.5167,2.519,2.5274,2.529,2.5237,2.5354,2.5367,2.5397,2.5385,2.543,2.5434,2.5478,2.5476,2.5474,2.5387,0,0,0,0,0,0,2.4924,2.4941,2.4938,2.5023,2.5044,2.5091,2.5151,2.5169,2.5197,2.5205,2.5285,2.53,2.5356,2.5391,2.5401,2.5391,2.5437,2.5479,2.5477,2.5475,2.5391,2.5383,2.5375,0,0,0,0,0,2.4918,2.4907,2.4938,2.4951,2.5043,2.509,2.5103,2.5168,2.5195,2.5195,2.5251,2.5297,2.5385,2.5393,2.5406,2.5396,2.548,2.5478,2.5475,2.5395,2.5384,2.5375,0,0,0,0,0,0,2.4816,2.4919,2.4954,2.4969,2.5021,2.5107,2.5108,2.5154,2.5198,2.5204,2.5284,2.5301,2.5323,2.5363,2.537,2.5402,2.5439,2.5439,2.5374,2.5364,2.5356,2.5346,2.544,0,0,0,0,0,2.4796,2.4825,2.4914,2.4918,2.4943,2.5021,2.5044,2.5091,2.5147,2.5169,2.5227,2.528,2.5321,2.5345,2.5386,2.5399,2.542,2.54,2.5391,2.5384,2.5383,2.5399,2.5392,2.5465,2.5465,2.5465,0,0,2.4753,2.4813,2.4826,2.49,2.4945,2.4976,2.5038,2.5066,2.5091,2.5173,2.5206,2.5251,2.5316,2.5339,2.5352,2.5373,2.5368,2.5381,2.5374,2.5377,2.5395,2.5388,2.5382,2.5464,2.5464,2.5464,0,0,2.4691,2.4738,2.475,2.4796,2.4865,2.4918,2.4921,2.5003,2.5037,2.5071,2.5136,2.5168,2.5233,2.5279,2.5311,2.5276,2.5322,2.5287,2.5244,2.5258,2.5253,2.5248,2.5239,2.5234,2.5286,2.5286,2.5286,0,2.4629,2.4677,2.475,2.4777,2.4809,2.4889,2.4904,2.4944,2.5023,2.5044,2.5068,2.5158,2.5207,2.5244,2.5237,2.5259,2.5268,2.5277,2.5247,2.5244,2.524,2.5233,2.5229,2.5281,2.5282,2.5282,2.5283,0,2.4599,2.4632,2.4634,2.4711,2.4744,2.4764,2.4843,2.4868,2.4915,2.4967,2.5005,2.5068,2.5126,2.5139,2.5182,2.5185,2.5196,2.5232,2.5272,2.5228,2.5222,2.5219,2.5275,2.5276,2.5278,2.5279,0,0,2.4471,2.4594,2.4593,2.4632,2.4718,2.4745,2.4772,2.4831,2.4853,2.4907,2.4933,2.4992,2.5028,2.5065,2.5116,2.5128,2.5102,2.5164,2.5167,2.5152,2.5114,2.5087,2.5082,2.5135,2.5134,2.5134,2.511,0,2.4424,2.4475,2.4546,2.4574,2.4609,2.4689,2.4713,2.477,2.4821,2.4859,2.4917,2.4958,2.5001,2.5025,2.5041,2.5101,2.5096,2.5104,2.5162,2.5163,2.5143,2.5078,2.5048,2.5021,2.5107,2.5107,2.5107,0,2.4374,2.4427,2.4459,2.4549,2.4566,2.4586,2.4649,2.4684,2.4753,2.479,2.4834,2.4891,2.4928,2.4964,2.5017,2.5022,2.5051,2.5085,2.5086,2.5093,2.5131,2.5085,2.5014,2.501,2.5103,2.5104,2.5104,0,2.4281,2.436,2.4391,2.4422,2.4526,2.4539,2.4583,2.4654,2.4687,2.4743,2.4767,2.4826,2.4858,2.4905,2.4978,2.4997,2.5025,2.5066,2.5059,2.5057,2.506,2.5058,2.4993,2.5077,2.5077,2.5077,2.5077,0,2.4221,2.4238,2.4352,2.437,2.4395,2.4478,2.45,2.4552,2.4615,2.4648,2.4721,2.4751,2.4846,2.4888,2.4946,2.4984,2.4997,2.5031,2.5046,2.5024,2.502,2.5043,2.5047,2.5076,2.5076,2.5076,2.5077,0,2.4119,2.4195,2.4236,2.4333,2.4359,2.4372,2.4457,2.4481,2.454,2.4581,2.4596,2.4688,2.4742,2.4821,2.4897,2.4937,2.4968,2.4991,2.4944,2.4953,2.4943,2.4943,2.489,2.4889,2.4972,2.4971,2.497,0,2.4075,2.4091,2.4193,2.4221,2.4263,2.4307,2.4343,2.4428,2.4462,2.4547,2.4561,2.4622,2.4674,2.4758,2.4833,2.4895,2.4921,2.4899,2.4931,2.4911,2.4924,2.4923,2.4927,2.489,2.4889,2.4888,2.4887,0,2.3991,2.403,2.4078,2.4143,2.4184,2.4238,2.4296,2.4315,2.4413,2.4449,2.4507,2.4548,2.4631,2.4691,2.4764,2.4813,2.4868,2.4877,2.488,2.4857,2.483,2.4848,2.4924,2.4877,2.4878,2.4879,2.488,2.488,2.3919,2.3939,2.4015,2.4069,2.4123,2.4177,2.4205,2.427,2.4319,2.4393,2.4441,2.4498,2.4574,2.4678,2.4725,2.4772,2.4794,2.4796,2.4797,2.4796,2.479,2.4823,2.4786,2.4786,2.4786,2.4787,2.4787,0,2.384,2.3895,2.3944,2.4024,2.4068,2.4118,2.4187,2.422,2.4269,2.4335,2.4388,2.4457,2.4519,2.4601,2.4669,2.4692,2.472,2.4707,2.4707,2.4718,2.4765,2.4758,2.4685,2.4685,2.4685,2.4685,2.4685,2.4685,2.3804,2.3843,2.3892,2.396,2.4016,2.4072,2.4107,2.416,2.4214,2.4288,2.434,2.4394,2.4469,2.4545,2.4605,2.4629,2.4651,2.4632,2.4662,2.4705,2.4714,2.4722,2.4716,2.4635,2.4635,2.4612,2.4612,2.4611]},{"header":{"parameterUnit":"m.s-1","parameterCategory":1,"la1":30.2991,"la2":30.254,"lo1":-89.0895,"lo2":-89.0444,"dy":0.0017,"dx":0.0017,"nx":28,"ny":28,"refTime":"2025-06-06T21:00:00:Z","depth":0,"parameterNumber":3,"parameterNumberName":"V-component_of_WINDS"},"data":[0,0,0,0,0,0,0,0,0,0,0,0,0,0,0,0,0,0,0,0,0,0,0,0,0,0,0,0,0,0,0,0,0,0,0,0,0,0,0,0,0,0,0,0,0,0,0,0,0,0,0,0,0,0,0,0,0,0,4.3078,4.308,0,4.3256,4.3258,4.326,4.3301,4.33,4.3299,4.3298,4.3472,4.3477,4.3483,0,0,0,0,0,0,0,0,0,0,0,0,0,4.2768,4.2773,4.3078,4.308,4.3083,4.3256,4.3258,4.326,4.3301,4.33,4.3299,4.3297,4.347,4.3477,4.3483,0,0,0,0,0,0,0,0,0,0,0,0,0,4.2919,4.2775,4.3078,4.3124,4.313,4.3255,4.3258,4.3261,4.3302,4.33,4.3298,4.3297,4.3468,4.3476,4.3484,4.3573,0,0,4.3511,4.3514,0,0,0,0,0,0,0,0,4.2911,4.2931,4.3115,4.3121,4.3128,4.3255,4.3212,4.3365,4.3302,4.3236,4.3298,4.3296,4.34,4.3414,4.3451,4.3581,4.3589,4.3511,4.3517,4.352,4.3523,0,0,0,0,0,0,0,4.29,4.2923,4.3148,4.3118,4.3126,4.3134,4.3153,4.3242,4.3326,4.3242,4.3245,4.3266,4.3404,4.3443,4.3456,4.3591,4.3511,4.3519,4.3524,4.3528,4.3804,4.3806,0,0,0,0,0,0,4.2883,4.2914,4.3143,4.3154,4.3013,4.3141,4.3163,4.3216,4.3325,4.334,4.3268,4.3268,4.3429,4.3446,4.3462,4.3575,4.352,4.3528,4.3533,4.3802,4.3805,4.3807,0,0,0,0,0,0,4.2876,4.2903,4.3135,4.3035,4.3065,4.3148,4.3207,4.322,4.326,4.3345,4.3359,4.3293,4.3428,4.345,4.3546,4.3581,4.3532,4.354,4.3799,4.3803,4.3806,4.38,0,0,0,0,0,0,4.2867,4.29,4.2936,4.3036,4.3071,4.3219,4.3209,4.3225,4.3276,4.3277,4.3372,4.3386,4.3429,4.3533,4.3555,4.3592,4.3547,4.3797,4.3801,4.3805,4.3797,4.3802,4.3807,0,0,0,0,0,4.2856,4.2925,4.2938,4.2965,4.3118,4.3221,4.324,4.329,4.3278,4.3315,4.3369,4.3383,4.3574,4.3543,4.3567,4.3608,4.3795,4.38,4.3804,4.3795,4.3801,4.3807,0,0,0,0,0,0,4.2825,4.2939,4.2954,4.3059,4.313,4.3228,4.3275,4.3295,4.3369,4.3367,4.3423,4.3444,4.3537,4.3582,4.3545,4.37,4.3684,4.3694,4.3668,4.3675,4.3679,4.3667,4.3554,0,0,0,0,0,4.2831,4.2907,4.3002,4.3085,4.312,4.3191,4.3238,4.327,4.3345,4.3374,4.3436,4.3506,4.3582,4.363,4.3705,4.3803,4.3825,4.3843,4.3848,4.3852,4.386,4.3917,4.3926,4.3823,4.3823,4.3823,0,0,4.2843,4.2915,4.2959,4.308,4.3139,4.3215,4.3216,4.3296,4.3352,4.3386,4.3482,4.3529,4.3611,4.3709,4.3755,4.3749,4.3893,4.3858,4.386,4.3867,4.3923,4.3932,4.3941,4.3826,4.3826,4.3825,0,0,4.2904,4.2966,4.3043,4.3103,4.3193,4.3241,4.3259,4.3354,4.3388,4.3485,4.3512,4.3578,4.3708,4.3766,4.3812,4.3896,4.3912,4.3918,4.3943,4.3998,4.4006,4.4013,4.4045,4.4055,4.3925,4.3925,4.3925,0,4.2907,4.3025,4.3079,4.3159,4.3212,4.3248,4.3326,4.338,4.3488,4.3523,4.3515,4.368,4.3737,4.385,4.3871,4.3906,4.3928,4.3908,4.4001,4.4009,4.4017,4.4047,4.4058,4.3926,4.3926,4.3926,4.3926,0,4.3025,4.3106,4.3157,4.3265,4.3323,4.3401,4.3465,4.3516,4.3543,4.3591,4.3689,4.376,4.385,4.3878,4.3904,4.3995,4.3989,4.399,4.3975,4.4026,4.4055,4.4067,4.3926,4.3926,4.3926,4.3926,0,0,4.3071,4.321,4.3228,4.3278,4.3381,4.3444,4.3522,4.3614,4.3657,4.373,4.3798,4.3907,4.3909,4.3961,4.3994,4.4041,4.4105,4.4037,4.404,4.4049,4.4211,4.4211,4.4223,4.4116,4.4118,4.412,4.4205,0,4.3146,4.3293,4.3344,4.3464,4.354,4.3576,4.3644,4.3714,4.376,4.3829,4.3878,4.3956,4.3952,4.3985,4.4033,4.4087,4.4139,4.4081,4.4178,4.4181,4.4159,4.4239,4.4239,4.4315,4.4216,4.4218,4.422,0,4.3254,4.3333,4.3461,4.3556,4.359,4.3651,4.3739,4.3806,4.3884,4.3914,4.3974,4.4003,4.4085,4.4064,4.4178,4.4138,4.4181,4.4213,4.4217,4.4229,4.4205,4.4254,4.434,4.4352,4.4238,4.4236,4.4235,0,4.3277,4.3415,4.351,4.3551,4.3664,4.3707,4.3755,4.3833,4.3884,4.396,4.3994,4.4077,4.4122,4.4185,4.4235,4.4215,4.4345,4.4328,4.4372,4.4371,4.4399,4.4397,4.4494,4.4423,4.4423,4.4422,4.4422,0,4.3356,4.3434,4.3523,4.3581,4.3669,4.3726,4.381,4.386,4.3929,4.3996,4.403,4.4092,4.4155,4.4224,4.4264,4.4353,4.4372,4.4398,4.4408,4.4396,4.4393,4.4426,4.4422,4.4426,4.4425,4.4424,4.4424,0,4.3397,4.346,4.3567,4.3666,4.3692,4.3753,4.3836,4.3894,4.3941,4.4027,4.405,4.4124,4.4208,4.4265,4.437,4.4397,4.4494,4.4502,4.4469,4.4474,4.4516,4.4512,4.4639,4.466,4.4572,4.4573,4.4574,0,4.3445,4.3506,4.3613,4.3662,4.3712,4.379,4.3844,4.3902,4.3956,4.4052,4.4097,4.4184,4.4257,4.4389,4.4451,4.4533,4.4544,4.4583,4.4556,4.4543,4.4547,4.4543,4.455,4.4587,4.4588,4.4589,4.4589,0,4.3523,4.3551,4.3629,4.3719,4.3784,4.3856,4.3928,4.3966,4.4036,4.4095,4.4183,4.424,4.435,4.4436,4.4524,4.4571,4.4592,4.4597,4.4612,4.4602,4.4581,4.4595,4.4482,4.4594,4.4594,4.4593,4.4593,4.4593,4.357,4.3626,4.3711,4.3798,4.3859,4.3926,4.3986,4.4042,4.4118,4.4215,4.4243,4.4335,4.4412,4.4533,4.4582,4.4653,4.4649,4.467,4.4676,4.4681,4.4682,4.4568,4.4669,4.4669,4.4669,4.4669,4.4669,0,4.3651,4.3708,4.3787,4.3889,4.3957,4.3973,4.4054,4.4109,4.4191,4.4262,4.4334,4.4436,4.452,4.4589,4.4675,4.4718,4.473,4.4739,4.4737,4.4748,4.468,4.4659,4.4729,4.4729,4.4729,4.4729,4.4728,4.4728,4.3701,4.3799,4.3838,4.3965,4.4021,4.4114,4.416,4.4221,4.4279,4.4393,4.4464,4.4509,4.458,4.4672,4.4749,4.4767,4.4797,4.4805,4.4825,4.4759,4.4753,4.4746,4.4728,4.481,4.481,4.4888,4.4889,4.4889]}]]